TimeWET,TemperatureF,Dew PointF,Humidity,Sea Level PressureIn,VisibilityMPH,Wind Direction,Wind SpeedMPH,Gust SpeedMPH,PrecipitationIn,Events,Conditions,WindDirDegrees,DateUTC
6:00 AM,44,26,36,,9,NNW,13.8,,,,Scattered Clouds,340,2012-11-12 06:00:00
6:00 AM,44.6,26.6,49,29.92,6.2,NNW,13.8,-,N/A,,Scattered Clouds,340,2012-11-12 06:00:00
8:00 AM,44.6,26.6,49,29.95,6.2,NW,9.2,-,N/A,,Scattered Clouds,320,2012-11-12 08:00:00
9:00 AM,48,29,35,,12,NW,6.9,,,,Scattered Clouds,320,2012-11-12 09:00:00
9:00 AM,44.6,26.6,49,29.92,6.2,NNW,11.5,-,N/A,,Scattered Clouds,340,2012-11-12 09:00:00
10:00 AM,50.0,28.4,43,29.92,6.2,North,13.8,-,N/A,,Mostly Cloudy,360,2012-11-12 10:00:00
11:00 AM,51.8,28.4,41,29.92,6.2,North,11.5,-,N/A,,Scattered Clouds,360,2012-11-12 11:00:00
12:00 PM,56,28,22,,12,North,16.1,,,,Mostly Cloudy,0,2012-11-12 12:00:00
12:00 PM,57.2,28.4,33,29.89,6.2,North,16.1,-,N/A,,Partly Cloudy,360,2012-11-12 12:00:00
1:00 PM,57.2,28.4,33,29.86,6.2,North,18.4,-,N/A,,Partly Cloudy,360,2012-11-12 13:00:00
1:30 PM,57.2,28.4,33,29.86,6.2,North,18.4,34.5,N/A,,Partly Cloudy,360,2012-11-12 13:30:00
2:00 PM,57.2,26.6,31,29.86,6.2,North,20.7,32.2,N/A,,Partly Cloudy,360,2012-11-12 14:00:00
3:00 PM,55,26,21,,12,NNE,17.3,,,,Mostly Cloudy,20,2012-11-12 15:00:00
3:00 PM,55.4,26.6,33,29.89,6.2,NNE,17.3,29.9,N/A,,Partly Cloudy,20,2012-11-12 15:00:00
4:00 PM,55.4,23.0,29,29.92,6.2,NE,18.4,32.2,N/A,,Partly Cloudy,40,2012-11-12 16:00:00
5:00 PM,55.4,24.8,31,29.89,6.2,NNE,20.7,32.2,N/A,,Partly Cloudy,20,2012-11-12 17:00:00
6:00 PM,54,24,19,,12,NW,11.5,,,,Mostly Cloudy,320,2012-11-12 18:00:00
6:00 PM,53.6,24.8,33,29.92,6.2,NW,11.5,-,N/A,,Partly Cloudy,320,2012-11-12 18:00:00
9:00 PM,54,30,28,,9,North,6.9,,,,Scattered Clouds,0,2012-11-12 21:00:00
9:00 PM,53.6,30.2,41,30.01,6.2,North,6.9,-,N/A,,Partly Cloudy,360,2012-11-12 21:00:00